HULIANWANG DIGUI 12F

Last updated on Sun Oct 19 2025 00:02:08 GMT+0000 (Coordinated Universal Time)

1 66000U 25231F 25290.67339627 -.00000115 00000+0 22556-4 0 9997 2 66000 50.0063 351.2739 0005810 273.5748 86.4493 14.06285729 231
UTC large
Height (km)
Speed (km/s)
/
Latitude / Longitude
Inclination (degrees)
Orbital Period (minutes)
Azimuth
Elevation
Range (km)
Doppler Factor

Next 0 passes for location: London (51.5072 / 0.1276)

Sorry there are no passes over London.